Airfield :
LOGIN :

Register | Disclaimer

   EN    FR    IT 

 










Legend :    VFR   Marginal VFR   IFR   Intensive IFR   Very Intensive IFR
Visi :
Ceiling :
>= 8 km
>= 3000ft
5 to 8 km
1000 to 3000 ft
1500m to 5 km
500 to 1000 ft
800 to 1500m
200 to 500 ft
< 800m
< 200 ft
Symbols :   Thunderstorms  Fog  Heavy snow  Heavy precipitations  Wind > 20 kt
SIGMETs :     Misc.  Thunderstorms  Icing  Turbulence  Mountain Waves  Volcanic Ashes







- Airport Elevation : 1548 ft


LKNA - Náměšť Air Base

CURRENT METAR :
  • 152000Z 12012KT CAVOK 12/04 Q1020 NOSIG RMK BLU BLU

EXPIRED METARs :
  • 151900Z 13008KT CAVOK 13/04 Q1020 NOSIG RMK BLU BLU
  • 151800Z 12011KT CAVOK 13/04 Q1020 NOSIG RMK BLU BLU

TAF TAF LKNA
Valid from the 15 at 18:00 until the 16 at 18:00 UTC


151700Z 1518/1618 13014G24KT CAVOK
BECMG 1602/1604 15010KT
No reported NOTAMs for that airfield.



MET'MAP, your aeronautical weather chart ! - Copyright ORBIFLY December 2007 - Disclaimer

ORBIFLY MET'MAP TEAM :

Programming & Development : Alexandra Zaïnal
Concept & Development : Baudouin d'Aumeries
Co-Development & Prog : Marc-Olivier Méhu
Technical & hardware support : Manuel Goepfert

Contact : metmap@orbifly.com




SOURCES & CREDITS :

   NOAA